Location: Miles
(41.4492°N, 81.6087°W)
Time: 18:55:18
(UTC+00:00)

Transit 2A - Pass Details

Date: 22 September 2024
Orbit: 590 x 960 km, 66.7° (Epoch: 05 October)

Event Time Altitude Azimuth Distance (km) Brightness Sun altitude
Rises 22:09:55 0° 211° (SSW) 3,409 10.0 12.7°
Reaches altitude 10° 22:12:18 10° 212° (SSW) 2,524 9.4 12.3°
Maximum altitude 22:18:15 83° 300° (WNW) 938 6.8 11.2°
Drops below altitude 10° 22:24:37 10° 29° (NNE) 2,691 8.5 10.0°
Sets 22:27:13 0° 30° (NNE) 3,649 9.1 9.5°
